Tracking 30116 objects as of 10-Feb-2025
HD Live streaming from Space Station
objects crossing your sky now

PEGASUS DEB

Track PEGASUS DEB now!
10-day predictions


NORAD ID: 24239
Int'l Code: 1994-029LN
Perigee: 550.4 km
Apogee: 789.3 km
Inclination: 81.5 °
Period: 98.0 minutes
Semi major axis: 7040 km
RCS: 0.0506 m2 (small)
Launch date: May 19, 1994
Source: United States (US)
Launch site: AIR FORCE WESTERN TEST RANGE (AFWTR)

Note: This is SATELLITE DEBRIS
Your satellite tracking list
Your tracking list is empty




NASA's NSSDC Master Catalog

Two Line Element Set (TLE):
1 24239U 94029LN  25040.24836901  .00020806  00000-0  28042-2 0  9992
2 24239  81.5156 317.8697 0169676 332.3906  26.8361 14.69491139503551
Source of the keplerian elements: AFSPC